Weather History for Provincetown, MA

Change the Weather History Date:

Thursday, April 24, 2014

  Actual Average Record
Temperature  
Mean Temperature 46 °F -  
Max Temperature 51 °F 53 °F 69 °F (2011)
Min Temperature 42 °F 39 °F 37 °F (1999)
Degree Days  
Heating Degree Days 18    
Moisture  
Dew Point 33 °F    
Average Humidity 59    
Maximum Humidity 71    
Minimum Humidity 49    
Precipitation  
Precipitation 0.13 in - - ()
Sea Level Pressure  
Sea Level Pressure 29.68 in    
Wind  
Wind Speed - (North)    
Max Wind Speed -    
Max Gust Speed -    
Visibility 10 miles    
Events      
Averages and records for this station are not official NWS values.
T = Trace of Precipitation, MM = Missing Value Source: NWS Daily Summary

Daily Weather History Graph

Daily Weather History Graph

Search for Another Location

Airport:

Trip Planner

Search our weather history database for the weather conditions in past years. The results will help you decide how hot, cold, wet, or windy it might be!

Date:

Astronomy

Apr. 24, 2014 Rise Set
Actual Time 5:46 AM EDT 7:32 PM EDT
Civil Twilight 5:16 AM EDT 8:02 PM EDT
Nautical Twilight 4:40 AM EDT 8:38 PM EDT
Astronomical Twilight 4:01 AM EDT 9:17 PM EDT
Moon 3:01 AM EDT (4/24) 2:39 PM EDT (4/24)
Length of Visible Light 14h 45m
Length of Day
13h 45m
Waning Crescent, 24% of the Moon is Illuminated
Apr 24
Waning Crescent
Apr 29
New
May 6
First Quarter
May 14
Full
May 21
Last Quarter

Hourly Weather History & Observations

Time (EDT) Temp. Dew Point Humidity Pressure Visibility Wind Dir Wind Speed Gust Speed Precip Events Conditions
12:15 AM 44.6 °F 35.6 °F 71% 29.56 in 10.0 mi North - - N/A   Overcast
12:35 AM 44.6 °F 35.6 °F 71% 29.56 in 10.0 mi North - - N/A   Overcast
12:55 AM 44.6 °F 35.6 °F 71% 29.57 in 10.0 mi North - - N/A   Overcast
1:15 AM 44.6 °F 35.6 °F 71% 29.57 in 10.0 mi North - - N/A   Overcast
1:35 AM 44.6 °F 35.6 °F 71% 29.56 in 10.0 mi North - - N/A   Overcast
1:55 AM 44.6 °F 35.6 °F 71% 29.56 in 10.0 mi North - - N/A   Overcast
2:15 AM 44.6 °F 33.8 °F 66% 29.55 in 10.0 mi North - - N/A   Scattered Clouds
2:35 AM 44.6 °F 33.8 °F 66% 29.55 in 10.0 mi North - - N/A   Partly Cloudy
2:55 AM 44.6 °F 33.8 °F 66% 29.56 in 10.0 mi North - - N/A   Scattered Clouds
3:15 AM 42.8 °F 33.8 °F 70% 29.55 in 10.0 mi North - - N/A   Partly Cloudy
3:35 AM 42.8 °F 33.8 °F 70% 29.56 in 10.0 mi North - - N/A   Clear
3:55 AM 42.8 °F 33.8 °F 70% 29.55 in 10.0 mi North - - N/A   Clear
4:15 AM 42.8 °F 32.0 °F 66% 29.56 in 10.0 mi North - - N/A   Clear
4:55 AM 42.8 °F 30.2 °F 61% 29.57 in 10.0 mi North - - N/A   Mostly Cloudy
5:15 AM 42.8 °F 30.2 °F 61% 29.57 in 10.0 mi North - - N/A   Partly Cloudy
5:35 AM 42.8 °F 30.2 °F 61% 29.58 in 10.0 mi North - - N/A   Clear
5:55 AM 42.8 °F 30.2 °F 61% 29.59 in 10.0 mi North - - N/A   Clear
6:15 AM 42.8 °F 28.4 °F 57% 29.60 in 10.0 mi North - - N/A   Partly Cloudy
6:35 AM 42.8 °F 30.2 °F 61% 29.62 in 10.0 mi North - - N/A   Scattered Clouds
6:55 AM 42.8 °F 28.4 °F 57% 29.62 in 10.0 mi North - - N/A   Partly Cloudy
7:15 AM 42.8 °F 28.4 °F 57% 29.62 in 10.0 mi North - - N/A   Clear
7:35 AM 42.8 °F 28.4 °F 57% 29.62 in 10.0 mi North - - 0.01 in   Clear
7:55 AM 42.8 °F 28.4 °F 57% 29.63 in 10.0 mi North - - 0.01 in   Clear
8:15 AM 42.8 °F 28.4 °F 57% 29.63 in 10.0 mi North - - N/A   Clear
8:35 AM 42.8 °F 26.6 °F 53% 29.64 in 10.0 mi North - - N/A   Clear
8:55 AM 44.6 °F 26.6 °F 49% 29.64 in 10.0 mi North - - N/A   Clear
9:15 AM 44.6 °F 26.6 °F 49% 29.65 in 10.0 mi North - - N/A   Clear
9:35 AM 44.6 °F 28.4 °F 53% 29.65 in 10.0 mi North - - N/A   Clear
9:55 AM 44.6 °F 26.6 °F 49% 29.65 in 10.0 mi North - - N/A   Clear
10:15 AM 44.6 °F 28.4 °F 53% 29.66 in 10.0 mi North - - N/A   Clear
10:35 AM 44.6 °F 28.4 °F 53% 29.66 in 10.0 mi North - - N/A   Clear
10:55 AM 46.4 °F 28.4 °F 50% 29.66 in 10.0 mi North - - N/A   Clear
11:15 AM 46.4 °F 30.2 °F 53% 29.66 in 10.0 mi North - - 0.04 in   Clear
11:35 AM 46.4 °F 30.2 °F 53% 29.66 in 10.0 mi North - - 0.05 in   Clear
11:55 AM 48.2 °F 30.2 °F 50% 29.66 in 10.0 mi North - - 0.05 in   Clear
12:15 PM 48.2 °F 32.0 °F 54% 29.66 in 10.0 mi North - - N/A   Clear
12:35 PM 48.2 °F 33.8 °F 58% 29.66 in 10.0 mi North - - N/A   Clear
12:55 PM 48.2 °F 33.8 °F 58% 29.66 in 10.0 mi North - - N/A   Clear
1:15 PM 48.2 °F 33.8 °F 58% 29.66 in 10.0 mi North - - N/A   Clear
1:35 PM 50.0 °F 33.8 °F 54% 29.66 in 10.0 mi North - - N/A   Clear
1:55 PM 51.8 °F 33.8 °F 50% 29.66 in 10.0 mi North - - N/A   Clear
2:15 PM 51.8 °F 33.8 °F 50% 29.66 in 10.0 mi North - - N/A   Clear
2:35 PM 51.8 °F 33.8 °F 50% 29.66 in 10.0 mi North - - N/A   Clear
2:55 PM 51.8 °F 33.8 °F 50% 29.66 in 10.0 mi North - - N/A   Clear
3:15 PM 51.8 °F 35.6 °F 54% 29.66 in 10.0 mi North - - N/A   Clear
3:35 PM 51.8 °F 33.8 °F 50% 29.67 in 10.0 mi North - - N/A   Clear
3:55 PM 51.8 °F 33.8 °F 50% 29.67 in 10.0 mi North - - N/A   Clear
4:15 PM 51.8 °F 33.8 °F 50% 29.68 in 10.0 mi North - - N/A   Clear
4:35 PM 51.8 °F 35.6 °F 54% 29.69 in 10.0 mi North - - N/A   Clear
4:55 PM 51.8 °F 33.8 °F 50% 29.70 in 10.0 mi North - - N/A   Clear
5:15 PM 50.0 °F 33.8 °F 54% 29.71 in 10.0 mi North - - N/A   Clear
5:35 PM 50.0 °F 33.8 °F 54% 29.72 in 10.0 mi North - - N/A   Clear
5:55 PM 50.0 °F 33.8 °F 54% 29.73 in 10.0 mi North - - N/A   Clear
6:15 PM 48.2 °F 33.8 °F 58% 29.75 in 10.0 mi North - - N/A   Clear
6:35 PM 48.2 °F 33.8 °F 58% 29.76 in 10.0 mi North - - N/A   Clear
6:55 PM 46.4 °F 33.8 °F 62% 29.77 in 10.0 mi North - - N/A   Clear
7:15 PM 46.4 °F 33.8 °F 62% 29.78 in 10.0 mi North - - N/A   Clear
7:35 PM 46.4 °F 33.8 °F 62% 29.80 in 10.0 mi North - - N/A   Clear
7:55 PM 46.4 °F 33.8 °F 62% 29.81 in 10.0 mi North - - N/A   Clear
8:15 PM 46.4 °F 33.8 °F 62% 29.82 in 10.0 mi North - - 0.01 in   Clear
8:35 PM 46.4 °F 33.8 °F 62% 29.84 in 10.0 mi North - - 0.01 in   Clear
8:55 PM 46.4 °F 33.8 °F 62% 29.85 in 10.0 mi North - - 0.01 in   Mostly Cloudy
9:15 PM 44.6 °F 35.6 °F 71% 29.86 in 10.0 mi North - - N/A   Overcast
9:35 PM 46.4 °F 33.8 °F 62% 29.87 in 10.0 mi North - - N/A   Overcast
9:55 PM 46.4 °F 35.6 °F 66% 29.88 in 10.0 mi North - - 0.03 in   Overcast
10:15 PM 46.4 °F 35.6 °F 66% 29.88 in 10.0 mi North - - N/A   Overcast
10:35 PM 46.4 °F 35.6 °F 66% 29.89 in 10.0 mi North - - N/A   Overcast
10:55 PM 46.4 °F 35.6 °F 66% 29.89 in 10.0 mi North - - N/A   Overcast
11:15 PM 46.4 °F 35.6 °F 66% 29.89 in 10.0 mi North - - N/A   Overcast
11:35 PM 46.4 °F 33.8 °F 62% 29.89 in 10.0 mi North - - 0.01 in   Overcast
11:55 PM 46.4 °F 35.6 °F 66% 29.90 in 10.0 mi North - - 0.03 in   Overcast